WAT4203 LGKR-LGTS

Flight info

Callsign WAT4203
Flight time 0h 36m
Altitude 23000
Route PARAX M600 LOPOS
Aircraft A320/M-SDE3FGHIRWY/LB1

Departure

Time 2026-05-06 10:34
Airport Corfu Ioannis Kapodistrias International Airport (LGKR)

Arrival

Time 2026-05-06 11:10
Airport Thessaloniki Macedonia International Airport (LGTS)
Time Latitude Longitude Altitude Speed Heading
2026-05-06 10:17 39.60706 19.91349 19 ft 0 kts 79°
2026-05-06 10:28 39.60705 19.91344 18 ft 2 kts 79°
2026-05-06 10:28 39.60701 19.91320 19 ft 3 kts 76°
2026-05-06 10:29 39.60696 19.91295 22 ft 3 kts 72°
2026-05-06 10:29 39.60689 19.91270 19 ft 3 kts 66°
2026-05-06 10:29 39.60680 19.91247 22 ft 3 kts 53°
2026-05-06 10:29 39.60667 19.91230 21 ft 3 kts 18°
2026-05-06 10:30 39.60656 19.91228 21 ft 1 kts 348°
2026-05-06 10:30 39.60653 19.91228 19 ft 0 kts 348°
2026-05-06 10:31 39.60665 19.91225 22 ft 6 kts 348°
2026-05-06 10:31 39.60715 19.91212 20 ft 7 kts 348°
2026-05-06 10:32 39.60760 19.91201 18 ft 7 kts 349°
2026-05-06 10:32 39.60855 19.91177 21 ft 18 kts 349°
2026-05-06 10:32 39.60975 19.91147 19 ft 17 kts 348°
2026-05-06 10:32 39.61081 19.91119 19 ft 15 kts 348°
2026-05-06 10:33 39.61176 19.91093 19 ft 13 kts 343°
2026-05-06 10:33 39.61225 19.91014 21 ft 10 kts 282°
2026-05-06 10:33 39.61193 19.90958 21 ft 10 kts 188°
2026-05-06 10:33 39.61054 19.90992 20 ft 47 kts 167°
2026-05-06 10:34 39.60482 19.91140 20 ft 117 kts 168°
2026-05-06 10:34 39.59513 19.91407 134 ft 157 kts 165°
2026-05-06 10:34 39.58496 19.91800 901 ft 152 kts 149°
2026-05-06 10:34 39.57775 19.92830 1618 ft 154 kts 131°
2026-05-06 10:35 39.56998 19.93845 2154 ft 167 kts 141°
2026-05-06 10:35 39.56050 19.94859 2608 ft 185 kts 143°
2026-05-06 10:35 39.55422 19.95506 2918 ft 194 kts 143°
2026-05-06 10:35 39.54303 19.96622 3388 ft 214 kts 144°
2026-05-06 10:36 39.53516 19.97420 3820 ft 219 kts 143°
2026-05-06 10:36 39.52326 19.98689 4591 ft 224 kts 142°
2026-05-06 10:36 39.51105 20.00010 5391 ft 227 kts 142°
2026-05-06 10:36 39.49905 20.01320 6203 ft 230 kts 142°
2026-05-06 10:37 39.48663 20.02677 6935 ft 237 kts 142°
2026-05-06 10:37 39.47384 20.04061 7673 ft 241 kts 142°
2026-05-06 10:37 39.46081 20.05457 8438 ft 245 kts 142°
2026-05-06 10:37 39.44755 20.06880 9184 ft 250 kts 142°
2026-05-06 10:38 39.43495 20.08503 9745 ft 268 kts 125°
2026-05-06 10:38 39.42761 20.10779 10269 ft 282 kts 99°
2026-05-06 10:38 39.42806 20.13322 10942 ft 286 kts 74°
2026-05-06 10:38 39.43649 20.15617 11736 ft 284 kts 49°
2026-05-06 10:39 39.45124 20.17266 12503 ft 280 kts 24°
2026-05-06 10:39 39.46917 20.18261 13259 ft 283 kts 22°
2026-05-06 10:39 39.48445 20.19900 13964 ft 295 kts 54°
2026-05-06 10:39 39.49121 20.22428 14604 ft 305 kts 85°
2026-05-06 10:40 39.49129 20.25269 14839 ft 327 kts 85°
2026-05-06 10:40 39.49682 20.28193 14979 ft 346 kts 64°
2026-05-06 10:40 39.50885 20.30972 15199 ft 361 kts 54°
2026-05-06 10:40 39.52286 20.33706 15737 ft 367 kts 54°
2026-05-06 10:41 39.53707 20.36483 16347 ft 372 kts 53°
2026-05-06 10:41 39.55141 20.39285 17012 ft 375 kts 53°
2026-05-06 10:41 39.56445 20.42240 17664 ft 381 kts 63°
2026-05-06 10:41 39.57518 20.45393 18323 ft 384 kts 63°
2026-05-06 10:42 39.58604 20.48577 18897 ft 388 kts 63°
2026-05-06 10:42 39.59699 20.51783 19458 ft 391 kts 63°
2026-05-06 10:42 39.60802 20.55014 19977 ft 394 kts 63°
2026-05-06 10:42 39.61916 20.58276 20525 ft 397 kts 63°
2026-05-06 10:43 39.63040 20.61565 21050 ft 401 kts 63°
2026-05-06 10:43 39.64171 20.64881 21600 ft 403 kts 63°
2026-05-06 10:43 39.65306 20.68226 22089 ft 406 kts 63°
2026-05-06 10:44 39.67601 20.74995 23028 ft 414 kts 63°
2026-05-06 10:44 39.68755 20.78413 23127 ft 409 kts 63°
2026-05-06 10:44 39.69875 20.81742 23147 ft 398 kts 62°
2026-05-06 10:44 39.70982 20.84967 23140 ft 395 kts 61°
2026-05-06 10:45 39.72154 20.88233 23137 ft 393 kts 60°
2026-05-06 10:45 39.73313 20.91392 23140 ft 393 kts 60°
2026-05-06 10:45 39.74497 20.94599 23137 ft 393 kts 60°
2026-05-06 10:45 39.75676 20.97800 23132 ft 392 kts 60°
2026-05-06 10:46 39.76848 21.01002 23133 ft 392 kts 60°
2026-05-06 10:46 39.78012 21.04208 23132 ft 392 kts 60°
2026-05-06 10:46 39.79170 21.07421 23132 ft 393 kts 61°
2026-05-06 10:46 39.80333 21.10649 23128 ft 394 kts 61°
2026-05-06 10:47 39.81493 21.13880 23131 ft 394 kts 61°
2026-05-06 10:47 39.82653 21.17116 23126 ft 394 kts 60°
2026-05-06 10:47 39.83812 21.20348 23121 ft 394 kts 60°
2026-05-06 10:47 39.84972 21.23580 23114 ft 394 kts 60°
2026-05-06 10:48 39.86130 21.26810 23117 ft 394 kts 60°
2026-05-06 10:48 39.87287 21.30039 23105 ft 394 kts 60°
2026-05-06 10:48 39.88443 21.33269 23102 ft 394 kts 60°
2026-05-06 10:48 39.89600 21.36506 23101 ft 394 kts 60°
2026-05-06 10:49 39.90750 21.39736 23091 ft 393 kts 60°
2026-05-06 10:49 39.91898 21.42972 23078 ft 393 kts 60°
2026-05-06 10:49 39.93047 21.46207 23079 ft 393 kts 60°
2026-05-06 10:49 39.94194 21.49443 23076 ft 393 kts 60°
2026-05-06 10:50 39.95341 21.52682 23067 ft 394 kts 60°
2026-05-06 10:50 39.96489 21.55924 23061 ft 394 kts 60°
2026-05-06 10:50 39.97642 21.59156 23060 ft 394 kts 60°
2026-05-06 10:50 39.98802 21.62393 23057 ft 394 kts 60°
2026-05-06 10:51 39.99959 21.65624 23050 ft 394 kts 60°
2026-05-06 10:51 40.01116 21.68862 23051 ft 394 kts 60°
2026-05-06 10:51 40.02271 21.72098 23055 ft 394 kts 60°
2026-05-06 10:51 40.03426 21.75337 23056 ft 394 kts 60°
2026-05-06 10:52 40.04577 21.78576 23063 ft 394 kts 60°
2026-05-06 10:52 40.05725 21.81818 23061 ft 394 kts 60°
2026-05-06 10:52 40.06872 21.85059 23061 ft 393 kts 60°
2026-05-06 10:52 40.08021 21.88302 23095 ft 393 kts 60°
2026-05-06 10:53 40.09167 21.91540 23097 ft 393 kts 60°
2026-05-06 10:53 40.10312 21.94794 23092 ft 393 kts 61°
2026-05-06 10:53 40.11462 21.98063 23095 ft 403 kts 60°
2026-05-06 10:53 40.12651 22.01424 23096 ft 410 kts 61°
2026-05-06 10:54 40.13820 22.04794 22865 ft 403 kts 62°
2026-05-06 10:54 40.14953 22.08125 22390 ft 399 kts 62°
2026-05-06 10:54 40.16050 22.11380 21931 ft 395 kts 62°
2026-05-06 10:54 40.17150 22.14652 21481 ft 391 kts 62°
2026-05-06 10:55 40.18241 22.17893 21016 ft 388 kts 62°
2026-05-06 10:55 40.19325 22.21108 20600 ft 385 kts 62°
2026-05-06 10:55 40.20402 22.24295 20170 ft 382 kts 62°
2026-05-06 10:55 40.21477 22.27465 19728 ft 380 kts 62°
2026-05-06 10:56 40.22544 22.30611 19307 ft 377 kts 63°
2026-05-06 10:56 40.23602 22.33738 18882 ft 375 kts 63°
2026-05-06 10:56 40.24654 22.36853 18480 ft 372 kts 63°
2026-05-06 10:56 40.25695 22.39944 18032 ft 370 kts 63°
2026-05-06 10:57 40.26730 22.43018 17586 ft 367 kts 63°
2026-05-06 10:57 40.27755 22.46065 17144 ft 364 kts 63°
2026-05-06 10:57 40.28767 22.49073 16490 ft 358 kts 62°
2026-05-06 10:57 40.29977 22.51857 15708 ft 350 kts 54°
2026-05-06 10:58 40.31290 22.54528 14967 ft 347 kts 54°
2026-05-06 10:58 40.32586 22.57182 14325 ft 346 kts 54°
2026-05-06 10:58 40.33874 22.59830 13973 ft 343 kts 54°
2026-05-06 10:58 40.35151 22.62455 13584 ft 340 kts 54°
2026-05-06 10:59 40.36526 22.64954 13164 ft 335 kts 42°
2026-05-06 10:59 40.38423 22.66609 12737 ft 326 kts 18°
2026-05-06 10:59 40.40621 22.67109 12280 ft 320 kts 355°
2026-05-06 10:59 40.42735 22.66474 11812 ft 317 kts 338°
2026-05-06 11:00 40.44827 22.65538 11339 ft 318 kts 342°
2026-05-06 11:00 40.47274 22.64740 11178 ft 306 kts 348°
2026-05-06 11:00 40.49011 22.64374 11016 ft 300 kts 351°
2026-05-06 11:00 40.51084 22.64157 10685 ft 298 kts 356°
2026-05-06 11:01 40.53163 22.64175 10302 ft 299 kts
2026-05-06 11:01 40.55237 22.64433 9923 ft 300 kts
2026-05-06 11:01 40.57281 22.64916 9368 ft 297 kts 12°
2026-05-06 11:01 40.59275 22.65618 8663 ft 296 kts 17°
2026-05-06 11:02 40.61209 22.66533 8003 ft 294 kts 21°
2026-05-06 11:02 40.63071 22.67650 7639 ft 292 kts 26°
2026-05-06 11:02 40.64853 22.68942 7208 ft 292 kts 31°
2026-05-06 11:02 40.66558 22.70406 6815 ft 291 kts 35°
2026-05-06 11:03 40.68158 22.72015 6465 ft 288 kts 40°
2026-05-06 11:03 40.69635 22.73788 5974 ft 285 kts 45°
2026-05-06 11:03 40.70973 22.75701 5326 ft 282 kts 50°
2026-05-06 11:03 40.72129 22.77667 5209 ft 259 kts 55°
2026-05-06 11:04 40.73096 22.79568 5109 ft 243 kts 59°
2026-05-06 11:04 40.73927 22.81450 5000 ft 234 kts 63°
2026-05-06 11:04 40.74630 22.83362 4828 ft 233 kts 70°
2026-05-06 11:04 40.74906 22.85497 4368 ft 238 kts 94°
2026-05-06 11:05 40.74541 22.87574 4222 ft 229 kts 115°
2026-05-06 11:05 40.73668 22.89280 4047 ft 223 kts 135°
2026-05-06 11:05 40.72425 22.90452 3826 ft 220 kts 156°
2026-05-06 11:05 40.70966 22.91039 3550 ft 220 kts 166°
2026-05-06 11:06 40.69478 22.91513 3276 ft 220 kts 166°
2026-05-06 11:06 40.68051 22.91968 3003 ft 213 kts 166°
2026-05-06 11:06 40.66639 22.92418 2720 ft 208 kts 166°
2026-05-06 11:06 40.65269 22.92856 2475 ft 199 kts 166°
2026-05-06 11:07 40.63954 22.93276 2201 ft 190 kts 166°
2026-05-06 11:07 40.62696 22.93677 1943 ft 180 kts 166°
2026-05-06 11:07 40.61525 22.94051 1715 ft 167 kts 166°
2026-05-06 11:07 40.60438 22.94397 1500 ft 155 kts 166°
2026-05-06 11:08 40.59436 22.94716 1360 ft 144 kts 167°
2026-05-06 11:08 40.58488 22.95018 1123 ft 137 kts 166°
2026-05-06 11:08 40.57566 22.95314 955 ft 137 kts 167°
2026-05-06 11:08 40.56636 22.95611 807 ft 138 kts 167°
2026-05-06 11:09 40.55699 22.95910 584 ft 139 kts 167°
2026-05-06 11:09 40.54747 22.96215 420 ft 143 kts 167°
2026-05-06 11:09 40.53769 22.96532 255 ft 145 kts 167°
2026-05-06 11:09 40.52791 22.96841 60 ft 144 kts 168°
2026-05-06 11:10 40.51893 22.97120 28 ft 118 kts 167°
2026-05-06 11:10 40.51275 22.97318 31 ft 57 kts 165°
2026-05-06 11:10 40.51021 22.97403 28 ft 22 kts 167°
2026-05-06 11:10 40.50968 22.97530 28 ft 17 kts 66°
2026-05-06 11:11 40.51064 22.97569 29 ft 16 kts 348°
2026-05-06 11:11 40.51180 22.97532 29 ft 18 kts 346°
2026-05-06 11:11 40.51310 22.97490 29 ft 20 kts 346°
2026-05-06 11:11 40.51453 22.97444 29 ft 22 kts 346°
2026-05-06 11:12 40.51608 22.97395 29 ft 24 kts 346°
2026-05-06 11:12 40.51773 22.97343 29 ft 25 kts 347°
2026-05-06 11:12 40.51949 22.97287 27 ft 27 kts 346°
2026-05-06 11:12 40.52094 22.97269 28 ft 16 kts 49°
2026-05-06 11:13 40.52085 22.97402 28 ft 14 kts 105°
2026-05-06 11:13 40.52061 22.97524 28 ft 13 kts 104°
2026-05-06 11:13 40.52034 22.97668 29 ft 16 kts 103°
2026-05-06 11:13 40.52076 22.97741 29 ft 12 kts 344°
2026-05-06 11:14 40.52147 22.97665 28 ft 14 kts 324°
2026-05-06 11:14 40.52219 22.97592 28 ft 11 kts 317°
2026-05-06 11:14 40.52278 22.97532 28 ft 9 kts 355°
2026-05-06 11:14 40.52309 22.97558 28 ft 4 kts 42°
2026-05-06 11:15 40.52320 22.97572 28 ft 0 kts 46°